Regional Weather Roundup
Issued by NWS

Home | Current Version | Previous Version | Text Only | Print | Product List | Glossary On
Versions: 1 2 3 4 5 6 7 8 9 10 11 12 13 14 15 16 17 18 19 20 21 22 23 24 25 26 27 28 29 30 31 32 33 34 35 36 37 38 39 40 41 42 43 44 45 46 47 48 49 50
000
ASUS43 KFSD 211602
RWRSD

WEATHER ROUNDUP FOR SOUTH DAKOTA
NATIONAL WEATHER SERVICE SIOUX FALLS SD
1000 AM CST SAT JAN 21 2017

NOTE: "FAIR" INDICATES FEW OR NO CLOUDS BELOW 12,000 FEET WITH NO
SIGNIFICANT WEATHER AND/OR OBSTRUCTIONS TO VISIBILITY.


SDZ001>005-009-010-012>017-211700-
NORTHWEST AND NORTH CENTRAL SOUTH DAKOTA

CITY           SKY/WX    TMP DP  RH WIND       PRES   REMARKS
BUFFALO          N/A     26  22  84 NW13      29.29R WCI  15
FAITH            N/A     28  27  96 W12       29.35R WCI  18
MOBRIDGE       CLOUDY    27  23  85 NW5       29.33R FOG     WCI  22
$$

SDZ012>016-024>037-041>051-057-063-072>074-211700-
SOUTHWEST AND SOUTH CENTRAL SOUTH DAKOTA

CITY           SKY/WX    TMP DP  RH WIND       PRES   REMARKS
RAPID CTY ARPT SUNNY     34  28  79 W6        29.37R WCI  29
PIERRE         CLOUDY    26  25  96 W7        29.37R FOG     WCI  18
CUSTER         SUNNY     28  24  85 CALM      29.34R
ELLSWORTH AFB  SUNNY     32  32 100 CALM      29.37R
PHILIP         CLOUDY    35  32  88 W8        29.38R WCI  29
PINE RIDGE     CLOUDY    30  29  96 W9        29.41R WCI  22
SPEARFISH      FAIR      32  28  86 CALM      29.37R
WINNER         CLOUDY    31  28  89 SW3       29.38R
$$

SDZ004>011-016>023-039-040-211700-
NORTHEAST SOUTH DAKOTA

CITY           SKY/WX    TMP DP  RH WIND       PRES   REMARKS
ABERDEEN       CLOUDY    30  26  85 CALM      29.35S
WATERTOWN      MIX PCPN  34  34 100 SE5       29.34R VSB 1   WCI  30
BROOKINGS      LGT RAIN  34  34 100 SE5       29.34S VSB 1/2 WCI  30
SISSETON         N/A     34  34 100 SE8       29.38R WCI  27
$$

SDZ017-020-022-023-036>040-048>070-211700-
SOUTHEAST SOUTH DAKOTA

CITY           SKY/WX    TMP DP  RH WIND       PRES   REMARKS
SIOUX FALLS    CLOUDY    33  33 100 W9        29.36R WCI  25
HURON          CLOUDY    28  26  92 W7        29.37R WCI  21
CHAMBERLAIN    CLOUDY    30  30  97 W10       29.38R WCI  21
MITCHELL       CLOUDY    30  28  92 NW9       29.39R WCI  22
YANKTON        CLOUDY    32  28  86 NW9       29.40R WCI  24
$$

ABBREVIATIONS USED IN REMARKS
   TC - TEMPERATURE IN CELSIUS
  WCI - WIND CHILL INDEX
   HX - HEAT INDEX
  VSB - VISIBILITY





USA.gov is the U.S. government's official web portal to all federal, state and local government web resources and services.